Weather History for Challis, ID

Change the Weather History Date:

Thursday, May 23, 2013

  Actual Average Record
Temperature  
Mean Temperature 49 °F 54 °F  
Max Temperature 61 °F 68 °F 87 °F (1967)
Min Temperature 37 °F 40 °F 23 °F (1944)
Degree Days  
Heating Degree Days 16 11  
Month to date heating degree days 238 325  
Since 1 July heating degree days 7521 7916  
Cooling Degree Days 0 0  
Month to date cooling degree days 2 0  
Year to date cooling degree days 2 0  
Moisture  
Dew Point 20 °F    
Average Humidity 29    
Maximum Humidity 42    
Minimum Humidity 15    
Precipitation  
Precipitation T in 0.06 in 0.44 in (1945)
Month to date precipitation 0.63 1.02  
Year to date precipitation 1.11 3.68  
Sea Level Pressure  
Sea Level Pressure 29.78 in    
Wind  
Wind Speed 7 mph (NNW)    
Max Wind Speed 28 mph    
Max Gust Speed 33 mph    
Visibility 10 miles    
Events Rain    
T = Trace of Precipitation, MM = Missing Value Source: NWS Daily Summary

Daily Weather History Graph

Daily Weather History Graph

Search for Another Location

Airport:

Trip Planner

Search our weather history database for the weather conditions in past years. The results will help you decide how hot, cold, wet, or windy it might be!

Date:

Astronomy

May. 23, 2013 Rise Set
Actual Time 6:01 AM MDT 9:06 PM MDT
Civil Twilight 5:26 AM MDT 9:41 PM MDT
Nautical Twilight 4:41 AM MDT 10:26 PM MDT
Astronomical Twilight 3:47 AM MDT 11:21 PM MDT
Moon 7:41 PM MDT (5/23) 4:53 AM MDT (5/23)
Length of Visible Light 16h 15m
Length of Day
15h 05m
Waxing Gibbous, 97% of the Moon is Illuminated
May 23
Waxing Gibbous
May 24
Full
May 31
Last Quarter
Jun 8
New
Jun 16
First Quarter

Hourly Weather History & Observations

Time (MDT) Temp. Windchill Dew Point Humidity Pressure Visibility Wind Dir Wind Speed Gust Speed Precip Events Conditions
12:55 AM 43.0 °F 38.2 °F 16.0 °F 34% 29.77 in 10.0 mi NW 8.1 mph - N/A   Clear
1:55 AM 44.1 °F 38.6 °F 12.0 °F 27% 29.76 in 10.0 mi WNW 10.4 mph - N/A   Overcast
2:55 AM 43.0 °F 37.7 °F 14.0 °F 31% 29.77 in 10.0 mi NW 9.2 mph - N/A   Overcast
3:55 AM 42.1 °F 37.7 °F 17.1 °F 37% 29.78 in 10.0 mi NNW 6.9 mph - N/A   Overcast
4:55 AM 42.1 °F 39.2 °F 17.1 °F 37% 29.79 in 10.0 mi NW 4.6 mph - N/A   Partly Cloudy
5:55 AM 41.0 °F 39.0 °F 12.9 °F 32% 29.79 in 10.0 mi NW 3.5 mph - N/A   Clear
6:55 AM 37.9 °F 33.5 °F 16.0 °F 41% 29.83 in 10.0 mi WNW 5.8 mph - N/A   Clear
7:55 AM 44.1 °F - 17.1 °F 34% 29.83 in 10.0 mi Calm Calm - N/A   Clear
8:55 AM 46.0 °F 43.1 °F 21.9 °F 39% 29.83 in 10.0 mi NNE 5.8 mph - N/A   Clear
9:55 AM 48.0 °F - 21.9 °F 36% 29.82 in 10.0 mi Variable 3.5 mph - N/A   Clear
10:55 AM 50.0 °F - 19.0 °F 29% 29.81 in 10.0 mi NE 3.5 mph - N/A   Clear
11:55 AM 53.1 °F - 21.0 °F 29% 29.77 in 10.0 mi Calm Calm - N/A   Clear
12:55 PM 55.0 °F - 19.0 °F 24% 29.75 in 10.0 mi ENE 3.5 mph - N/A   Clear
1:55 PM 57.0 °F - 10.0 °F 15% 29.71 in 10.0 mi Variable 4.6 mph - N/A   Clear
2:55 PM 60.1 °F - 19.0 °F 20% 29.68 in 10.0 mi NNE 5.8 mph - N/A   Clear
3:55 PM 57.9 °F - 16.0 °F 19% 29.69 in 10.0 mi WSW 21.9 mph 28.8 mph N/A   Overcast
4:55 PM 55.0 °F - 21.0 °F 27% 29.73 in 10.0 mi NNW 12.7 mph 16.1 mph N/A   Mostly Cloudy
5:55 PM 55.0 °F - 23.0 °F 29% 29.73 in 10.0 mi NNW 9.2 mph - N/A   Partly Cloudy
6:27 PM 51.8 °F - 23.0 °F 33% 29.82 in 10.0 mi NW 19.6 mph 27.6 mph N/A   Scattered Clouds
6:55 PM 52.0 °F - 21.9 °F 31% 29.78 in 10.0 mi WNW 11.5 mph - N/A   Mostly Cloudy
7:55 PM 53.1 °F - 25.0 °F 34% 29.76 in 10.0 mi NNE 13.8 mph - N/A   Mostly Cloudy
8:55 PM 50.0 °F - 24.1 °F 36% 29.81 in 10.0 mi North 15.0 mph 19.6 mph N/A   Overcast
9:55 PM 48.0 °F - 26.1 °F 42% 29.84 in 10.0 mi North 9.2 mph - N/A   Overcast
10:55 PM 44.1 °F 40.1 °F 28.9 °F 55% 29.88 in 9.0 mi NW 6.9 mph 18.4 mph 0.00 in Rain Light Rain
11:55 PM 41.0 °F 38.0 °F 30.9 °F 67% 29.89 in 10.0 mi West 4.6 mph - 0.00 in   Partly Cloudy